Location: Chakepay
(13.3931°S, 72.1925°W)
Time: 04:27:23
(UTC+00:00)

Daily predictions for brighter satellites

Satellite Brightness Start Highest point End
(mag) Time Altitude Azimuth Time Altitude Azimuth Time Altitude Azimuth
Cosmos 1707 Rocket 3.7 00:01:03 10° S 00:05:16 50° E 00:07:12 28° NE
Intercosmos 24 4.2 00:00:28 10° N 00:05:22 74° W 00:09:08 10° S
NOSS 3-4 (A) 3.6 00:05:12 10° SSW 00:11:31 56° ESE 00:14:22 30° NE
NOSS 3-4 (C) 3.6 00:05:18 10° SSW 00:11:37 55° ESE 00:14:26 31° NE
Ariane H10 4.5 00:09:37 10° NW 00:11:24 16° N 00:11:24 16° N
Cosmos 2322 4.2 00:07:27 10° S 00:12:49 41° ESE 00:14:32 33° ENE
Cosmos 1634 Rocket 4.4 00:10:14 25° NE 00:13:00 38° E 00:18:39 10° SSE
Ariane Rocket 3.2 00:10:25 10° SSE 00:15:18 45° ENE 00:17:23 29° NNE
Cosmos 2333 Rocket 3.4 00:12:55 10° SSE 00:17:15 23° ESE 00:17:15 23° ESE
Cosmos 2227 Rocket 2.0 00:16:48 10° N 00:22:24 75° ENE 00:28:03 10° SSE
Cosmos 2297 Rocket 2.1 00:16:59 10° NNW 00:22:38 83° ENE 00:28:19 10° SSE
Cosmos 1782 4.1 00:20:14 10° SSW 00:24:01 39° W 00:27:42 10° NNW
Meteor 2-6 Rocket 4.2 00:19:13 10° S 00:25:08 85° E 00:28:44 24° N
YAOGAN 1 4.1 00:21:18 10° S 00:25:19 37° WSW 00:29:18 10° NW
Nadezhda 4 Rocket 4.0 00:21:24 10° S 00:27:26 54° E 00:29:18 40° NE
GPS 2-18 Rocket1 4.1 00:25:16 10° WSW 00:28:41 34° S 00:28:58 34° SSE
ARIANE 5 R/B 4.3 00:27:07 10° NW 00:29:38 26° N 00:29:38 26° N
IRS-1A Rocket 4.2 00:24:57 10° SSE 00:30:21 55° ENE 00:31:42 44° NNE
DMSP B5D2-2 4.1 00:31:46 53° ENE 00:32:29 58° ESE 00:37:38 10° S
Cosmos 1933 Rocket 3.5 00:32:20 39° N 00:33:55 83° W 00:38:21 10° S
Cosmos 2219 Rocket 3.0 00:29:21 10° S 00:33:45 32° ESE 00:33:45 32° ESE
ARIANE 5 DEB (SYLDA) 3.9 00:30:43 10° WNW 00:35:23 28° N 00:35:34 28° N
Atlas Centaur 2 3.5 00:34:16 10° WSW 00:41:48 41° NW 00:44:14 32° N
ATLAS 2AS CENTAUR R/B 3.6 00:41:51 10° SW 00:48:35 47° WNW 00:53:19 22° N
Cosmos 2082 3.5 00:49:18 74° NNE 00:49:42 79° ENE 00:55:23 10° SSE
Centaur D-1AR AC-48 3.1 00:48:56 10° W 00:53:14 65° S 01:10:20 10° ESE
GPS 2-12 Rocket1 4.0 00:51:41 10° W 00:55:23 44° WNW 00:55:23 44° WNW
Cosmos 1607 4.0 00:58:19 10° NNW 01:04:38 80° WSW 01:11:03 10° SSE
ATLAS 5 CENTAUR R/B 2.9 00:57:55 10° NNW 01:06:24 58° SE 01:12:01 10° SSE
CZ-2C R/B 3.1 01:06:28 50° S 01:06:28 50° S 01:10:18 10° S
Cosmos 1092 Rocket 4.0 01:01:25 10° S 01:07:00 70° SSE 01:07:00 70° SSE
FUSE 4.4 01:03:14 10° WSW 01:07:31 56° SW 01:07:31 56° SW
COSMOS 2428 3.1 01:03:15 10° SSW 01:07:44 56° S 01:07:44 56° S
SWIFT 4.4 01:07:50 10° WSW 01:10:15 25° SW 01:10:15 25° SW
MOS 1 4.5 01:07:36 10° S 01:12:54 68° SW 01:12:54 68° SW
Cosmos 2237 Rocket 4.2 01:20:48 10° S 01:22:18 17° SSE 01:22:18 17° SSE
BLOCK DM-SL R/B 4.3 01:13:43 10° WNW 01:28:52 28° NNW 01:28:52 28° NNW
ATLAS CENTAUR Rocket 4.1 01:47:29 10° WSW 01:59:50 33° S 01:59:50 33° S
H-2A R/B 4.4 01:56:03 10° SSW 01:57:57 20° SSW 01:57:57 20° SSW
Cosmos 2333 Rocket 4.3 01:56:39 10° SW 01:59:18 22° WSW 01:59:18 22° WSW
CZ-3B R/B 4.4 02:30:00 10° WSW 02:47:08 59° SSE 02:49:18 57° SE
SL-16 R/B 4.3 06:52:03 10° SSE 06:54:47 27° SE 06:54:47 27° SE
Cosmos 2369 Rocket 4.2 07:14:48 22° SSE 07:14:48 22° SSE 07:16:45 10° SSE
CZ-3A R/B 4.5 07:28:38 12° SE 07:28:38 12° SE 07:29:50 10° ESE
Cosmos 1821 Rocket 4.5 07:34:56 10° S 07:39:48 55° SSE 07:39:48 55° SSE
SJ 16-02 4.1 07:39:44 10° SE 07:42:30 16° ESE 07:45:14 10° ENE
Cosmos 1943 Rocket 4.2 07:47:03 17° SSW 07:47:03 17° SSW 07:48:31 10° S
Delta 202 4.3 07:46:28 62° SSE 07:46:28 62° SSE 07:53:40 10° ESE
ADEOS 3.9 07:56:52 61° SE 07:56:52 61° SE 08:01:31 10° S
Cosmos 1867 4.4 07:59:22 42° ENE 07:59:47 43° ENE 08:04:51 10° SE
CZ-3C R/B 2.4 08:06:36 50° SW 08:07:57 59° S 08:18:29 10° ESE
Cosmos 1656 Rocket 4.1 08:23:20 44° SW 08:23:20 44° SW 08:28:06 10° S
Meteor 1-28 Rocket 4.5 08:19:30 10° SSE 08:23:04 38° E 08:23:51 34° NE
MSX 3.7 08:21:13 25° N 08:24:46 84° WNW 08:30:36 10° SSW
CZ-2C R/B 3.2 08:20:33 10° NNE 08:24:58 47° ESE 08:29:22 10° S
deb Centaur AC-2 3.9 08:26:40 77° S 08:26:40 77° S 08:31:13 10° ESE
H-2A R/B 2.7 08:25:21 35° NNE 08:27:06 70° ESE 08:31:20 10° S
Genesis I 3.4 08:29:26 63° E 08:29:26 63° E 08:32:57 10° SSE
H-2A R/B 4.4 08:28:23 10° SSW 08:29:05 13° SW 08:29:05 13° SW
Landsat 5 4.0 08:29:27 10° S 08:33:21 47° SW 08:33:21 47° SW
GPS 2-15 Rocket1 3.1 08:35:52 58° WSW 08:36:42 75° SSW 08:41:28 10° ESE
Cosmos 1076 Rocket 4.2 08:35:30 10° S 08:39:47 53° E 08:44:02 10° NNE
Cosmos 1689 Rocket 3.7 08:37:13 10° SE 08:39:55 32° E 08:40:47 26° NE
SL-16 R/B 4.5 08:38:36 10° SW 08:39:53 12° WSW 08:39:53 12° WSW
COSMOS 2441 4.3 08:42:18 37° NNW 08:43:56 57° W 08:48:39 10° SSW
Cosmos 1934 Rocket 4.1 08:38:03 10° SSW 08:43:57 49° W 08:47:12 26° NNW
USA 267 3.1 08:39:18 10° NNE 08:45:50 78° NW 08:52:25 10° SW
GEOS 3 Rocket 3.9 08:41:05 10° SE 08:46:10 63° ENE 08:49:34 21° NNW
IDEFIX/ARIANE 42P 4.0 08:49:27 21° WSW 08:49:27 21° WSW 08:51:42 10° SW
SJ-6F 4.2 08:45:54 17° N 08:48:56 78° WNW 08:53:03 10° SSW
Ariane 42L Rocket 3.8 08:57:04 26° NNW 08:58:46 34° NNE 09:10:09 10° ENE
Meteor PRIRODA 4.0 09:03:54 10° NNE 09:07:29 65° ESE 09:11:07 10° S
CZ-4B R/B 2.7 09:04:46 10° N 09:08:34 67° W 09:12:36 10° SSW
SEDSat Delta rocket 4.0 09:13:09 22° NW 09:13:45 23° NNW 09:17:04 10° NNE
DELTA 2 R/B(2) 4.2 09:16:42 24° NNE 09:16:42 24° NNE 09:17:36 10° NNE
Cosmos 1153 Rocket 4.4 09:12:12 10° S 09:18:24 68° W 09:24:30 10° N
Meteor 2-10 Rocket 3.8 09:14:05 10° N 09:19:49 90° W 09:25:42 10° S
SJ 16-02 2.5 09:17:28 10° SW 09:20:51 22° W 09:24:11 10° NNW
Meteor 1-31 Rocket 3.3 09:17:14 10° N 09:20:52 38° W 09:24:33 10° SSW
ATLAS CENTAUR R/B 2.3 09:16:53 10° SW 09:21:03 32° WNW 09:25:21 10° N
Palapa B4 Rocket 3.3 09:15:59 12° W 09:21:26 67° NNW 09:25:30 10° ENE
GPS 2-05 Rocket1 3.8 09:22:39 18° NNW 09:22:39 18° NNW 09:24:17 10° N
Cosmos 1340 Rocket 3.1 09:19:13 10° NNW 09:22:59 45° W 09:26:50 10° S
PSLV R/B 4.4 09:19:46 10° SSE 09:23:48 61° E 09:27:49 10° N
Cosmos 2151 3.6 09:19:47 10° S 09:24:01 60° E 09:28:13 10° NNE
CZ-4B R/B 3.2 09:22:45 10° SW 09:24:26 14° WSW 09:24:32 14° WSW
Lacrosse 4 Rocket 3.7 09:21:25 10° NNE 09:24:59 25° ENE 09:28:37 10° SE
Cosmos 2221 3.8 09:21:54 10° NNE 09:26:03 44° E 09:30:13 10° SSE
GPS 2-17 Rocket1 4.0 09:21:34 10° WSW 09:26:17 49° S 09:30:55 10° E
Cosmos 1484 Rocket 2.8 09:23:48 10° N 09:27:46 86° WNW 09:31:46 10° SSW
GPS 2-04 Rocket1 2.9 09:26:03 16° WNW 09:29:10 64° SW 09:33:21 10° SE
Cosmos 2173 Rocket 4.3 09:22:55 10° S 09:29:19 78° E 09:35:38 10° N
ASTEX 1 3.9 09:29:43 10° SSE 09:34:36 66° E 09:39:28 10° N
GPS 2-14 Rocket1 3.1 09:30:47 11° W 09:34:39 48° NNW 09:38:39 10° NE
Cosmos 1842 Rocket 3.5 09:33:49 10° N 09:38:08 76° W 09:42:29 10° S
Geosat 4.2 09:33:10 10° SSE 09:38:12 79° ENE 09:43:12 10° NNW
Cosmos 1455 3.4 09:36:21 10° NW 09:39:27 24° W 09:42:36 10° SSW
In-Cosmos 22 Rocket 4.3 09:37:12 10° SSW 09:42:19 48° W 09:47:23 10° NNW
Cosmos 773 Rocket 4.0 09:38:48 10° NNW 09:44:02 70° WSW 09:49:19 10° S
CZ-4B R/B 3.6 09:41:05 10° NNE 09:46:36 73° ESE 09:52:15 10° S
Cosmos 2123 Rocket 4.2 09:44:07 10° NNW 09:50:10 54° W 09:56:21 10° S
Cosmos 1697 Rocket 4.3 09:45:31 10° N 09:50:35 36° ENE 09:55:42 10° SE
FENGYUN 3A 3.7 09:47:12 10° N 09:52:35 85° WNW 09:58:00 10° SSW
